Location: �pieds
(47.1435°N, 0.0457°W)
Time: 18:37:29
(UTC+00:00)

Daily predictions for brighter satellites

Satellite Brightness Start Highest point End
(mag) Time Altitude Azimuth Time Altitude Azimuth Time Altitude Azimuth
ERS-2 2.6 19:51:01 10° N 19:54:39 66° WNW 19:58:14 10° SSW
SPOT 3 Rocket 4.2 19:50:11 10° SE 19:54:56 39° ENE 19:59:42 10° N
CZ-4 R/B 4.4 19:53:43 10° WSW 19:55:57 14° W 19:58:11 10° WNW
Cosmos 1743 Rocket 3.5 19:52:13 10° N 19:56:34 76° E 20:00:55 10° SSE
Cosmos 1844 4.2 19:51:32 10° S 19:56:45 38° ESE 20:01:56 10° NE
Resurs 1-3 3.7 19:52:39 10° SSE 19:56:59 64° ENE 20:01:20 10° N
Cosmos 968 Rocket 3.7 19:52:31 10° S 19:57:35 52° ESE 20:02:40 10° NNE
BREEZE-M DEB (TANK) 3.8 19:53:17 10° W 19:57:36 75° S 20:04:35 10° ESE
ATLAS 5 CENTAUR R/B 3.0 19:53:59 10° NNW 19:59:09 44° NE 20:05:12 10° ESE
BREEZE M DEB (TANK) 3.8 19:59:52 10° WSW 20:03:22 83° SSE 20:14:29 10° ENE
Cosmos 1486 Rocket 4.3 20:00:01 10° S 20:05:07 49° ESE 20:10:16 10° NNE
Intercosmos 25 Rocket 4.2 19:58:54 10° N 20:05:57 71° ENE 20:10:12 10° SSE
Cosmos 1500 Rocket 3.7 20:04:07 10° N 20:08:33 81° W 20:12:54 10° S
Cosmos 1833 Rocket 4.4 20:04:32 10° N 20:08:45 21° NE 20:12:58 10° E
IGS 5A 4.0 20:04:52 10° SE 20:08:46 42° ENE 20:12:43 10° N
Cosmos 2221 3.4 20:06:41 10° SSW 20:10:53 54° WNW 20:15:10 10° N
S3M 4.2 20:05:31 10° SSE 20:11:42 55° E 20:17:52 10° NNE
BREEZE-M R/B 2.4 20:09:19 10° SW 20:11:53 34° SSE 20:14:08 10° E
USA 186 3.9 20:11:21 10° SSW 20:13:19 19° W 20:15:13 10° NW
Cosmos 1666 Rocket 4.5 20:12:26 10° N 20:16:26 32° ENE 20:19:58 12° SE
FALCON 9 DEB 4.3 20:14:51 10° WNW 20:17:30 28° SW 20:20:03 11° SSE
Cosmos 1933 3.7 20:18:14 10° SSE 20:22:04 43° E 20:25:55 10° NNE
USA 305 4.4 20:19:03 10° WNW 20:22:57 33° N 20:26:49 10° ENE
USA 245 4.0 20:23:41 14° E 20:24:33 16° ENE 20:26:03 10° NNE
Cosmos 1242 Rocket 3.1 20:24:14 10° SSE 20:27:35 38° E 20:30:55 10° NNE
OBJECT-B 3.0 20:25:12 10° SSW 20:27:56 25° W 20:30:42 10° NW
Cosmos 1553 Rocket 4.1 20:24:12 10° SSW 20:30:18 79° W 20:36:34 10° N
Cosmos 1437 Rocket 2.8 20:27:38 10° SSW 20:31:30 82° WNW 20:35:28 10° N
BREEZE M DEB (TANK) 2.8 20:25:06 10° W 20:31:32 60° N 20:34:02 10° E
FALCON 9 DEB 4.4 20:29:59 10° W 20:32:35 25° SW 20:34:36 14° S
Resurs 01 Rocket 1.6 20:29:53 10° SSE 20:34:20 90° E 20:38:48 10° NNW
OE (NEXTSAT) 4.2 20:33:35 10° W 20:37:03 75° S 20:39:58 14° E
Spot 2 Rocket 4.1 20:34:12 15° SE 20:38:02 42° ENE 20:42:47 10° N
DELTA 2 R/B (1) 4.4 20:33:14 10° WSW 20:38:14 35° S 20:41:52 17° SE
SJ 16-02 3.5 20:38:19 10° E 20:38:26 10° E 20:38:50 10° E
Sich 1 3.0 20:34:31 10° N 20:38:52 89° E 20:43:00 11° S
COSMOS 2406 4.3 20:34:29 10° NNW 20:39:31 31° NE 20:43:43 14° ESE
Meteor 1-20 Rocket 4.2 20:36:15 10° N 20:41:56 85° E 20:47:11 12° SSE
Cosmos 2082 Rocket 4.0 20:37:52 10° N 20:41:58 20° NE 20:46:03 10° E
USA 306 4.3 20:38:16 10° WNW 20:42:12 35° N 20:46:08 10° ENE
BREEZE-M DEB (TANK) 4.4 20:43:16 10° SW 20:44:14 11° SSW 20:45:21 10° S
CZ-4C R/B 3.5 20:37:40 10° NW 20:44:26 50° NE 20:51:18 14° ESE
Cosmos 1500 4.2 20:42:07 10° NNE 20:45:28 29° ENE 20:47:10 20° ESE
Cosmos 1782 3.2 20:43:16 16° SSE 20:46:09 43° E 20:49:57 10° NNE
ERS-1 Rocket 3.7 20:50:52 19° SE 20:53:58 39° ENE 20:58:38 10° N
Cosmos 1503 Rocket 3.9 20:50:45 10° SSW 20:55:53 77° ESE 21:01:07 10° NNE
SPOT 5 3.7 20:52:52 19° SE 20:55:58 40° ENE 21:00:51 10° N
Intercosmos 24 4.2 20:54:32 10° SSW 20:58:20 59° W 21:01:52 10° N
USA 290 2.8 20:58:00 10° NNW 21:01:11 52° WSW 21:02:58 22° S
Cosmos 1151 Rocket 3.0 20:58:02 15° S 21:01:33 67° E 21:05:55 10° NNE
CREW DRAGON DEMO-1 DEB 4.2 21:00:24 10° WNW 21:02:48 30° N 21:04:38 14° ENE
Cosmos 1602 3.7 21:00:03 10° N 21:03:56 85° W 21:06:20 22° S
Terra 2.8 21:02:23 21° ESE 21:04:47 33° ENE 21:09:03 10° N
USA 307 4.1 21:03:38 10° NW 21:07:39 38° NNE 21:11:25 11° E
Cosmos 2278 Rocket 3.0 21:05:44 22° SE 21:08:06 31° ESE 21:13:00 10° NE
CZ-2C R/B 3.8 21:08:04 10° NNE 21:12:33 77° WNW 21:17:04 10° SSW
SL-4 R/B 4.0 21:15:51 10° W 21:19:14 21° SW 21:21:08 17° SSW
Cosmos 1515 Rocket 3.9 21:17:35 30° SSE 21:19:18 47° E 21:23:32 10° NNE
X-37B 0.9 21:16:50 10° W 21:19:56 46° SSW 21:20:09 45° S
Cosmos 1844 Rocket 3.8 21:15:00 10° SW 21:20:19 45° NW 21:25:42 10° NNE
Cosmos 2084 3.5 21:17:53 19° S 21:20:34 47° SE 21:24:40 10° NE
SPOT 1/Viking Rocket 3.8 21:16:47 18° S 21:20:36 66° WSW 21:25:48 10° NNW
USA 308 4.0 21:17:07 10° NW 21:21:13 42° NNE 21:24:24 16° E
SWARM C 4.5 21:18:46 10° N 21:22:05 67° E 21:22:53 46° SSE
SWARM A 4.1 21:18:53 10° N 21:22:12 70° E 21:23:01 46° SSE
ARIANE 5 R/B 2.5 21:20:40 28° S 21:22:57 83° WSW 21:27:19 10° NNW
Cosmos 1437 2.2 21:25:46 64° S 21:26:09 87° E 21:29:01 10° NNE
JB-3 4.1 21:22:16 10° NNE 21:26:13 75° ESE 21:27:56 32° S
Cosmos 1354 Rocket 4.3 21:22:01 10° SSW 21:27:14 70° WNW 21:32:30 10° NNE
Cosmos 1633 Rocket 3.6 21:24:24 10° NNW 21:28:43 56° W 21:31:23 22° SSW
Cosmos 1812 2.6 21:31:31 42° SSE 21:32:40 67° E 21:36:31 10° NNE
Cosmos 1470 Rocket 3.6 21:33:30 10° NNW 21:38:00 78° W 21:39:57 33° S
Cosmos 2184 Rocket 4.1 21:32:09 10° N 21:38:22 63° ENE 21:41:18 31° SSE
Meteor 1-5 Rocket 4.0 21:34:05 10° N 21:39:32 83° ENE 21:42:00 33° SSE
Cosmos 1328 Rocket 4.0 21:36:50 18° SSW 21:40:05 61° WNW 21:44:29 10° N
NOSS 3-4 (A) 4.2 21:35:29 10° NW 21:42:15 58° NE 21:47:03 23° ESE
NOSS 3-4 (C) 4.2 21:35:36 10° NW 21:42:21 57° NE 21:47:10 23° ESE
ATLAS 5 CENTAUR R/B 3.0 21:38:30 10° NW 21:43:57 47° WSW 21:47:13 26° S
CARTOSAT-1 4.1 21:44:07 29° SSW 21:46:05 52° W 21:50:20 10° NNW
Cosmos 2074 Rocket 4.0 21:40:01 10° N 21:46:21 74° E 21:49:23 33° SSE
NOSS 3-3 (A) 3.9 21:45:41 10° SW 21:51:28 85° NW 21:58:08 10° NE
NOSS 3-3 (C) 3.9 21:45:47 10° SW 21:51:34 85° NW 21:58:14 10° NE
Cosmos 1666 2.5 21:47:54 10° N 21:51:39 87° ENE 21:52:11 64° SSE
Cosmos 1933 Rocket 3.5 21:48:12 10° N 21:52:33 83° W 21:53:49 46° S
Cosmos 1833 Rocket 2.6 21:47:45 10° NNW 21:53:26 85° WSW 21:55:42 38° SSE
Nadezhda 1 Rocket 4.3 21:51:52 34° SE 21:54:18 52° E 22:00:20 10° NNE
ATLAS 2AS CENTAUR R/B 3.6 21:48:34 10° NW 21:55:45 46° NE 22:00:32 19° ESE
Meteor 2-12 Rocket 4.5 21:50:37 10° N 21:56:39 65° ENE 21:59:02 37° SE
Cosmos 1743 4.4 21:53:44 10° NNE 21:56:45 21° ENE 21:56:52 21° ENE
BREEZE-M DEB (TANK) 2.9 21:56:49 10° WNW 21:57:57 30° WNW 21:57:57 30° WNW
BREEZE-M DEB (TANK) 4.3 21:52:14 10° W 22:01:29 51° NNW 22:04:25 10° ENE
Cosmos 1538 Rocket 4.0 21:56:42 10° NNW 22:02:07 80° WSW 22:03:56 43° S
USA 215 4.2 21:56:25 10° E 22:02:32 45° NNE 22:08:41 10° NW
USA 305 3.1 21:59:10 10° WNW 22:03:26 65° NNE 22:04:41 42° E
Iridium 4 Rocket 3.8 22:01:48 31° S 22:04:41 78° W 22:10:38 10° N
Cosmos 1610 Rocket 4.5 22:02:16 10° N 22:08:25 70° E 22:10:38 41° SSE
Resurs 01 Rocket 4.5 22:10:46 10° W 22:11:28 10° W 22:12:12 10° WNW
Cosmos 158 Rocket 3.7 22:09:28 10° NNW 22:14:23 82° ENE 22:15:27 55° SE
Cosmos 1733 Rocket 4.4 22:12:01 10° NNE 22:15:42 26° ENE 22:16:02 26° E
SJ 16-02 1.3 22:15:15 54° SSW 22:16:14 89° WNW 22:20:43 10° NNE
Cosmos 2228 Rocket 2.9 22:17:34 64° S 22:18:13 83° E 22:22:42 10° N
Cosmos 1680 Rocket 3.9 22:14:47 10° NNW 22:20:01 53° ENE 22:21:27 41° ESE
Meteor 1-27 Rocket 3.7 22:18:38 45° SSE 22:20:27 72° E 22:26:21 10° NNE
Cosmos 2341 Rocket 4.5 22:14:52 10° N 22:21:04 49° ENE 22:23:08 37° ESE
USA 306 2.8 22:18:18 10° WNW 22:22:35 80° NNE 22:23:05 68° E
COSMOS 2406 3.7 22:18:36 10° NW 22:24:03 50° WSW 22:25:47 38° SSW
Cosmos 2082 Rocket 2.1 22:21:11 10° NNW 22:26:51 89° WSW 22:28:19 52° SSE
ERS-1 Rocket 4.4 22:30:51 22° SW 22:32:51 29° W 22:37:15 10° NW
H-2A R/B 4.4 22:28:51 10° N 22:32:53 45° WNW 22:34:17 32° WSW
CZ-4C R/B 3.3 22:26:10 10° NW 22:33:17 54° WSW 22:36:28 36° S
SPOT 5 4.4 22:32:05 23° SW 22:34:07 30° W 22:38:41 10° NNW
Cosmos 1271 Rocket 3.6 22:35:28 40° WSW 22:36:14 45° WNW 22:40:07 10° N
Terra 3.1 22:41:15 28° SW 22:42:31 32° W 22:46:47 10° NNW
Meteor 1-11 Rocket 4.2 22:37:28 10° NNW 22:43:19 57° W 22:45:14 40° SSW
Okean 1 4.3 22:46:34 36° ENE 22:46:34 36° ENE 22:49:35 10° NNE
USA 307 3.0 22:43:38 10° WNW 22:47:30 68° W 22:47:30 68° W
Cosmos 1340 Rocket 2.9 22:45:47 10° NNW 22:49:40 79° NNW 22:49:40 79° NNW
Cosmos 2278 Rocket 3.1 22:47:29 15° SW 22:51:58 47° NW 22:57:27 10° NNE
Spot 4 3.7 22:53:27 69° SE 22:53:57 79° ENE 22:58:51 10° NNW
Cosmos 1515 4.5 22:55:28 44° NE 22:55:28 44° NE 22:58:19 10° NNE
Cosmos 923 Rocket 4.1 22:49:57 10° NNW 22:55:10 64° WSW 22:55:53 57° SSW
Cosmos 1544 3.8 22:52:18 10° NNW 22:55:12 49° NW 22:55:12 49° NW
Cosmos 1862 Rocket 4.1 22:57:00 45° ENE 22:57:00 45° ENE 23:00:40 10° NNE
Cosmos 1898 Rocket 3.4 22:57:39 66° SSE 22:58:08 71° ESE 23:03:27 10° NNE
Cosmos 1536 3.7 22:55:46 10° NNW 22:59:30 40° W 22:59:30 40° W
Cosmos 1869 Rocket 4.5 22:56:46 10° NNW 23:00:46 37° W 23:01:03 36° WSW
USA 308 3.5 22:57:08 10° WNW 23:00:29 49° W 23:00:29 49° W
Cosmos 2369 Rocket 3.5 23:03:27 26° E 23:03:27 26° E 23:07:34 10° NE
COBE Rocket 4.4 23:07:04 45° E 23:07:46 48° ENE 23:12:41 10° N
Meteor 2-9 Rocket 4.3 23:03:44 10° N 23:09:34 71° ENE 23:10:35 58° SE
SL-8 Rocket 3.9 23:03:41 10° N 23:10:04 84° E 23:11:34 56° SSE
Cosmos 1943 Rocket 2.3 23:11:55 55° ESE 23:12:06 55° ESE 23:17:35 10° NE
Cosmos 1975 3.6 23:08:51 10° N 23:12:12 46° NE 23:12:12 46° NE
Cosmos 2084 Rocket 4.0 23:08:49 10° NNW 23:12:59 51° NE 23:13:20 49° ENE
ALOS 2 2.6 23:16:05 72° ENE 23:16:05 72° ENE 23:20:21 10° N
DNEPR-1 R/B 4.2 23:19:57 58° ESE 23:19:57 58° ESE 23:24:48 10° NE
Cosmos 1707 Rocket 4.0 23:20:01 52° W 23:20:10 52° WNW 23:24:29 10° N
Cosmos 44 3.3 23:14:47 10° NW 23:20:16 90° ENE 23:20:48 74° SE
Meteor 2-4 Rocket 4.2 23:20:31 45° ESE 23:21:05 47° E 23:26:30 10° NNE
Cosmos 990 Rocket 4.3 23:20:01 49° WSW 23:21:13 63° WNW 23:26:27 10° NNE
Okean 1-7 4.2 23:30:15 33° ENE 23:30:15 33° ENE 23:33:30 10° NNE
Cosmos 372 Rocket 4.2 23:30:36 55° E 23:30:36 55° E 23:35:23 10° NNE
Cosmos 1743 4.2 23:29:08 10° NNW 23:31:55 29° WNW 23:31:55 29° WNW
NOSS 3-4 (A) 4.4 23:26:34 10° NW 23:33:09 42° WSW 23:34:29 39° SW
NOSS 3-4 (C) 4.4 23:26:40 10° NW 23:33:15 42° WSW 23:34:35 39° SW
Meteor 1-18 Rocket 4.1 23:33:04 68° S 23:33:51 88° ESE 23:39:29 10° NNE
Cosmos 1238 Rocket 4.0 23:29:23 10° NNW 23:35:39 60° W 23:36:39 52° SW
SL-24 R/B - RUBIN 2 3.9 23:32:13 10° NW 23:37:28 65° WSW 23:37:28 65° WSW
Cosmos 864 Rocket 4.4 23:32:38 10° NNW 23:38:48 76° W 23:39:57 59° SSW
SeaSat 1 3.1 23:34:09 10° NE 23:38:19 41° E 23:38:19 41° E
Cosmos 2242 Rocket 4.1 23:40:22 49° ENE 23:40:22 49° ENE 23:44:12 10° NNE
Cosmos 1959 Rocket 4.5 23:35:26 10° NNW 23:41:40 71° W 23:42:51 57° SSW
USA 215 3.2 23:42:20 37° SE 23:45:13 89° NNE 23:51:48 10° NW
ATLAS 2AS CENTAUR R/B 2.9 23:39:49 10° NW 23:46:54 54° WSW 23:47:56 49° SSW
Cosmos 2297 4.0 23:45:51 47° WSW 23:47:20 64° WNW 23:53:00 10° NNE
Cosmos 1733 Rocket 4.3 23:49:41 10° NNW 23:53:07 31° W 23:53:07 31° W
Cosmos 2181 Rocket 4.3 23:52:11 44° SW 23:53:47 57° WNW 23:59:50 10° N
SJ 16-02 4.1 23:53:27 10° WNW 23:55:32 13° NW 23:57:37 10° NNW
